TimeCDT,TemperatureF,Dew PointF,Humidity,Sea Level PressureIn,VisibilityMPH,Wind Direction,Wind SpeedMPH,Gust SpeedMPH,PrecipitationIn,Events,Conditions,WindDirDegrees,DateUTC
12:15 AM,41.5,41.4,99,29.59,2.0,Calm,Calm,-,N/A,,Overcast,0,2013-04-12 05:15:00
12:35 AM,42.1,41.9,99,29.59,1.0,West,8.1,-,N/A,,Overcast,270,2013-04-12 05:35:00
12:55 AM,41.9,41.9,100,29.59,1.8,West,13.8,-,N/A,,Overcast,270,2013-04-12 05:55:00
1:15 AM,40.1,39.9,99,29.60,1.8,West,13.8,23.0,N/A,Rain,Light Rain,270,2013-04-12 06:15:00
1:35 AM,40.1,39.9,99,29.60,10.0,West,10.4,-,N/A,,Overcast,270,2013-04-12 06:35:00
1:55 AM,40.1,38.8,95,29.59,7.0,West,10.4,16.1,N/A,,Overcast,270,2013-04-12 06:55:00
2:15 AM,39.4,37.8,94,29.59,5.0,West,9.2,-,N/A,,Overcast,260,2013-04-12 07:15:00
2:35 AM,39.2,37.4,93,29.60,10.0,WSW,8.1,-,N/A,,Overcast,250,2013-04-12 07:35:00
2:55 AM,39.0,36.5,91,29.59,7.0,WSW,10.4,-,N/A,,Overcast,250,2013-04-12 07:55:00
3:15 AM,38.5,36.7,93,29.59,4.0,WSW,5.8,-,N/A,,Overcast,240,2013-04-12 08:15:00
3:35 AM,38.5,37.4,96,29.59,4.0,WSW,4.6,-,N/A,,Overcast,250,2013-04-12 08:35:00
3:55 AM,38.3,36.9,95,29.59,10.0,WSW,11.5,-,N/A,,Overcast,250,2013-04-12 08:55:00
4:15 AM,37.9,35.8,92,29.59,10.0,WSW,10.4,-,N/A,,Overcast,250,2013-04-12 09:15:00
4:35 AM,37.6,35.1,91,29.59,10.0,WSW,9.2,-,N/A,,Overcast,250,2013-04-12 09:35:00
4:55 AM,37.4,34.3,89,29.59,10.0,WSW,12.7,16.1,N/A,,Overcast,250,2013-04-12 09:55:00
5:15 AM,36.9,33.4,87,29.59,10.0,WSW,10.4,-,N/A,,Overcast,250,2013-04-12 10:15:00
5:35 AM,36.7,32.5,85,29.59,10.0,WSW,10.4,-,N/A,,Overcast,250,2013-04-12 10:35:00
5:55 AM,36.5,32.0,84,29.59,10.0,WSW,9.2,-,N/A,,Overcast,240,2013-04-12 10:55:00
6:15 AM,36.3,32.0,84,29.60,10.0,WSW,9.2,-,N/A,,Overcast,250,2013-04-12 11:15:00
6:35 AM,36.1,32.0,85,29.61,10.0,WSW,9.2,-,N/A,,Overcast,250,2013-04-12 11:35:00
6:55 AM,36.0,32.5,87,29.62,10.0,WSW,10.4,-,N/A,,Overcast,240,2013-04-12 11:55:00
7:15 AM,35.8,32.4,87,29.62,10.0,SW,15.0,18.4,N/A,,Overcast,230,2013-04-12 12:15:00
7:35 AM,35.8,32.0,86,29.62,10.0,WSW,15.0,-,N/A,,Overcast,240,2013-04-12 12:35:00
7:55 AM,35.8,32.0,86,29.63,10.0,WSW,11.5,19.6,N/A,,Overcast,240,2013-04-12 12:55:00
8:15 AM,36.5,32.0,84,29.64,10.0,WSW,16.1,21.9,N/A,,Overcast,240,2013-04-12 13:15:00
8:35 AM,36.5,32.0,84,29.64,10.0,SW,12.7,20.7,N/A,,Overcast,230,2013-04-12 13:35:00
8:55 AM,36.5,32.0,84,29.64,10.0,WSW,15.0,18.4,N/A,,Overcast,240,2013-04-12 13:55:00
9:15 AM,36.5,32.0,84,29.64,10.0,WSW,11.5,18.4,N/A,,Overcast,240,2013-04-12 14:15:00
9:35 AM,36.5,32.0,84,29.65,10.0,SW,12.7,19.6,N/A,,Overcast,230,2013-04-12 14:35:00
9:55 AM,36.5,32.2,84,29.65,10.0,WSW,11.5,18.4,N/A,,Overcast,240,2013-04-12 14:55:00
10:15 AM,36.5,32.4,85,29.65,5.0,SW,12.7,-,N/A,,Drizzle,230,2013-04-12 15:15:00
10:35 AM,36.5,33.1,87,29.66,10.0,WSW,10.4,-,N/A,,Overcast,240,2013-04-12 15:35:00
10:55 AM,37.0,33.3,86,29.66,10.0,WSW,16.1,-,N/A,,Light Drizzle,240,2013-04-12 15:55:00
11:15 AM,38.7,34.5,85,29.67,10.0,WSW,16.1,-,N/A,,Overcast,250,2013-04-12 16:15:00
11:35 AM,37.9,33.8,85,29.67,5.0,WSW,13.8,21.9,N/A,,Drizzle,240,2013-04-12 16:35:00
11:55 AM,39.2,34.2,82,29.67,10.0,WSW,17.3,21.9,N/A,,Overcast,250,2013-04-12 16:55:00
12:15 PM,36.1,33.4,90,29.68,2.0,WSW,9.2,23.0,0.01,Rain,Light Rain,250,2013-04-12 17:15:00
12:35 PM,39.4,36.1,88,29.68,10.0,West,11.5,-,0.01,,Overcast,260,2013-04-12 17:35:00
12:55 PM,39.4,35.4,86,29.69,7.0,WSW,19.6,25.3,0.01,,Drizzle,250,2013-04-12 17:55:00
1:15 PM,41.4,37.6,86,29.68,10.0,WSW,15.0,19.6,N/A,,Overcast,250,2013-04-12 18:15:00
1:35 PM,40.1,35.8,85,29.69,4.0,West,15.0,21.9,0.01,Rain,Light Rain,260,2013-04-12 18:35:00
1:55 PM,40.8,35.4,81,29.69,7.0,WSW,17.3,23.0,0.01,,Overcast,240,2013-04-12 18:55:00
2:15 PM,39.7,35.4,85,29.70,10.0,West,13.8,23.0,N/A,Rain,Light Rain,260,2013-04-12 19:15:00
2:35 PM,41.2,35.8,81,29.71,10.0,WSW,13.8,18.4,N/A,,Overcast,240,2013-04-12 19:35:00
2:55 PM,41.0,34.9,79,29.71,10.0,WSW,16.1,25.3,N/A,,Overcast,250,2013-04-12 19:55:00
3:15 PM,41.4,35.8,81,29.71,10.0,WSW,18.4,24.2,N/A,,Overcast,250,2013-04-12 20:15:00
3:35 PM,41.4,34.5,77,29.72,10.0,WSW,17.3,25.3,N/A,,Overcast,240,2013-04-12 20:35:00
3:55 PM,43.0,36.5,78,29.72,10.0,SW,17.3,21.9,N/A,,Overcast,230,2013-04-12 20:55:00
4:15 PM,43.0,36.9,79,29.73,10.0,WSW,16.1,23.0,N/A,,Overcast,250,2013-04-12 21:15:00
4:35 PM,41.4,37.8,87,29.74,7.0,WSW,16.1,21.9,N/A,,Light Drizzle,250,2013-04-12 21:35:00
4:55 PM,41.2,37.4,86,29.74,7.0,WSW,13.8,21.9,N/A,Rain,Rain,250,2013-04-12 21:55:00
5:15 PM,41.2,37.4,86,29.75,10.0,WSW,17.3,-,N/A,,Overcast,240,2013-04-12 22:15:00
5:35 PM,40.1,37.0,89,29.76,5.0,WSW,15.0,24.2,N/A,,Drizzle,250,2013-04-12 22:35:00
5:55 PM,39.7,37.4,91,29.77,5.0,West,15.0,19.6,N/A,,Overcast,260,2013-04-12 22:55:00
6:15 PM,40.1,36.5,87,29.78,10.0,West,13.8,17.3,N/A,,Overcast,260,2013-04-12 23:15:00
6:35 PM,40.1,35.6,84,29.79,10.0,WSW,16.1,26.5,N/A,,Light Drizzle,250,2013-04-12 23:35:00
6:55 PM,39.7,34.3,81,29.79,10.0,WSW,15.0,19.6,N/A,,Overcast,250,2013-04-12 23:55:00
7:15 PM,39.6,34.2,81,29.79,10.0,WSW,11.5,-,N/A,,Overcast,250,2013-04-13 00:15:00
7:35 PM,39.2,33.3,79,29.80,10.0,West,16.1,27.6,N/A,,Overcast,260,2013-04-13 00:35:00
7:55 PM,38.7,32.5,79,29.80,10.0,West,13.8,-,N/A,,Overcast,270,2013-04-13 00:55:00
8:15 PM,38.7,32.0,77,29.81,10.0,West,16.1,24.2,N/A,,Overcast,270,2013-04-13 01:15:00
8:35 PM,38.5,32.0,78,29.82,10.0,West,15.0,19.6,N/A,,Overcast,260,2013-04-13 01:35:00
8:55 PM,38.3,31.3,76,29.82,10.0,WSW,16.1,19.6,N/A,,Overcast,250,2013-04-13 01:55:00
9:15 PM,38.3,30.9,75,29.83,10.0,West,12.7,-,N/A,,Overcast,260,2013-04-13 02:15:00
9:35 PM,37.9,29.8,73,29.84,10.0,West,13.8,23.0,N/A,,Overcast,260,2013-04-13 02:35:00
9:55 PM,37.6,28.6,70,29.85,10.0,West,16.1,21.9,N/A,,Overcast,260,2013-04-13 02:55:00
10:15 PM,37.6,28.2,69,29.86,10.0,West,15.0,20.7,N/A,,Overcast,270,2013-04-13 03:15:00
10:35 PM,37.4,28.4,70,29.86,10.0,West,11.5,-,N/A,,Overcast,260,2013-04-13 03:35:00
10:55 PM,37.4,28.6,70,29.86,10.0,West,8.1,-,N/A,,Overcast,260,2013-04-13 03:55:00
11:15 PM,37.4,28.8,71,29.86,10.0,WSW,9.2,-,N/A,,Overcast,250,2013-04-13 04:15:00
11:35 PM,37.4,29.1,72,29.86,10.0,WSW,6.9,-,N/A,,Overcast,250,2013-04-13 04:35:00
11:55 PM,37.0,30.0,76,29.86,10.0,WSW,9.2,-,N/A,,Overcast,240,2013-04-13 04:55:00